Year,Month,Day,Hour,Minute,Value (Times are PST for temperature in C)
2008,07,15,00,00,14.20
2008,07,15,00,01,14.20
2008,07,15,00,02,14.20
2008,07,15,00,03,14.10
2008,07,15,00,04,14.10
2008,07,15,00,05,14.10
2008,07,15,00,06,14.10
2008,07,15,00,07,14.10
2008,07,15,00,08,14.10
2008,07,15,00,09,14.10
2008,07,15,00,10,14.10
2008,07,15,00,11,14.00
2008,07,15,00,12,14.00
2008,07,15,00,13,14.00
2008,07,15,00,14,14.00
2008,07,15,00,15,13.90
2008,07,15,00,16,13.90
2008,07,15,04,02,11.20
2008,07,15,04,03,11.20
2008,07,15,04,04,11.20
2008,07,15,04,05,11.20
2008,07,15,04,06,11.20
2008,07,15,04,07,11.20
2008,07,15,04,08,11.20
2008,07,15,04,09,11.20
2008,07,15,04,10,11.20
2008,07,15,04,11,11.20
2008,07,15,04,12,11.20
2008,07,15,04,13,11.20
2008,07,15,04,14,11.20
2008,07,15,04,15,11.20
2008,07,15,04,16,11.20
2008,07,15,04,17,11.30
2008,07,15,04,18,11.30
2008,07,15,04,19,11.30
2008,07,15,04,20,11.30
2008,07,15,04,21,11.20
2008,07,15,04,22,11.20
2008,07,15,04,23,11.20
2008,07,15,04,24,11.20
2008,07,15,04,25,11.20
2008,07,15,04,26,11.20
2008,07,15,04,27,11.20
2008,07,15,04,28,11.20
2008,07,15,04,29,11.20
2008,07,15,04,30,11.10
2008,07,15,04,31,11.10
2008,07,15,04,32,11.10
2008,07,15,04,33,11.10
2008,07,15,04,34,11.10
2008,07,15,04,35,11.10
2008,07,15,04,36,11.10
2008,07,15,04,37,11.10
2008,07,15,04,38,11.10
2008,07,15,04,39,11.10
2008,07,15,04,40,11.10
2008,07,15,04,41,11.10
2008,07,15,04,42,11.10
2008,07,15,04,43,11.10
2008,07,15,04,44,11.10
2008,07,15,04,45,11.10
2008,07,15,04,46,11.10
2008,07,15,04,47,11.10
2008,07,15,04,48,11.10
2008,07,15,04,49,11.10
2008,07,15,04,50,11.10
2008,07,15,04,51,11.00
2008,07,15,04,52,10.90
2008,07,15,04,53,10.90
2008,07,15,04,54,10.90
2008,07,15,04,55,10.90
2008,07,15,04,56,10.90
2008,07,15,04,57,10.90
2008,07,15,04,58,10.90
2008,07,15,04,59,10.90
2008,07,15,05,00,10.90
2008,07,15,05,01,10.90
2008,07,15,05,02,10.90
2008,07,15,05,03,10.90
2008,07,15,05,04,10.90
2008,07,15,05,05,10.80
2008,07,15,05,06,10.80
2008,07,15,05,07,10.80
2008,07,15,05,08,10.80
2008,07,15,05,09,10.80
2008,07,15,05,10,10.80
2008,07,15,05,11,10.80
2008,07,15,05,12,10.80
2008,07,15,05,13,10.80
2008,07,15,05,14,10.70
2008,07,15,05,15,10.70
2008,07,15,05,16,10.70
2008,07,15,05,17,10.70
2008,07,15,05,18,10.70
2008,07,15,05,19,10.70
2008,07,15,05,20,10.70
2008,07,15,05,21,10.70
2008,07,15,05,22,10.70
2008,07,15,05,23,10.70
2008,07,15,05,24,10.80
2008,07,15,05,25,10.80
2008,07,15,05,26,10.80
2008,07,15,05,27,10.80
2008,07,15,05,28,10.80
2008,07,15,05,29,10.80
2008,07,15,05,30,10.80
2008,07,15,05,31,10.80
2008,07,15,05,32,10.80
2008,07,15,05,33,10.80
2008,07,15,05,34,10.70
2008,07,15,05,35,10.70
2008,07,15,05,36,10.70
2008,07,15,05,37,10.70
2008,07,15,05,38,10.60
2008,07,15,05,39,10.60
2008,07,15,05,40,10.60
2008,07,15,05,41,10.60
2008,07,15,05,42,10.60
2008,07,15,05,43,10.60
2008,07,15,05,44,10.50
2008,07,15,05,45,10.40
2008,07,15,05,46,10.40
2008,07,15,05,47,10.40
2008,07,15,05,48,10.40
2008,07,15,05,49,10.40
2008,07,15,05,50,10.40
2008,07,15,05,51,10.40
2008,07,15,05,52,10.40
2008,07,15,05,53,10.40
2008,07,15,05,54,10.40
2008,07,15,05,55,10.40
2008,07,15,05,56,10.40
2008,07,15,05,57,10.40
2008,07,15,05,58,10.40
2008,07,15,05,59,10.40
2008,07,15,06,00,10.40
2008,07,15,06,01,10.40
2008,07,15,06,02,10.40
2008,07,15,06,03,10.40
2008,07,15,06,04,10.30
2008,07,15,06,05,10.30
2008,07,15,06,06,10.30
2008,07,15,06,07,10.30
2008,07,15,06,08,10.30
2008,07,15,06,09,10.30
2008,07,15,06,10,10.40
2008,07,15,06,11,10.40
2008,07,15,06,12,10.40
2008,07,15,06,13,10.40
2008,07,15,06,14,10.40
2008,07,15,06,15,10.40
2008,07,15,06,16,10.40
2008,07,15,06,17,10.40
2008,07,15,06,18,10.40
2008,07,15,06,19,10.50
2008,07,15,06,20,10.60
2008,07,15,06,21,10.60
2008,07,15,06,22,10.60
2008,07,15,06,23,10.60
2008,07,15,06,24,10.60
2008,07,15,06,25,10.70
2008,07,15,06,26,10.70
2008,07,15,06,27,10.80
2008,07,15,06,28,10.80
2008,07,15,06,29,10.80
2008,07,15,06,30,10.90
2008,07,15,06,31,10.90
2008,07,15,06,32,10.90
2008,07,15,06,33,11.00
2008,07,15,06,34,11.10
2008,07,15,06,35,11.10
2008,07,15,06,36,11.10
2008,07,15,06,37,11.10
2008,07,15,06,38,11.10
2008,07,15,06,39,11.20
2008,07,15,06,40,11.20
2008,07,15,06,41,11.30
2008,07,15,06,42,11.30
2008,07,15,06,43,11.40
2008,07,15,06,44,11.40
2008,07,15,06,45,11.60
2008,07,15,06,46,11.60
2008,07,15,06,47,11.70
2008,07,15,06,48,11.70
2008,07,15,06,49,11.80
2008,07,15,06,50,11.80
2008,07,15,06,51,11.90
2008,07,15,06,52,11.90
2008,07,15,06,53,12.00
2008,07,15,06,54,12.10
2008,07,15,06,55,12.10
2008,07,15,06,56,12.20
2008,07,15,06,57,12.30
2008,07,15,06,58,12.30
2008,07,15,06,59,12.40
2008,07,15,07,00,12.50
2008,07,15,07,01,12.50
2008,07,15,07,02,12.60
2008,07,15,07,03,12.60
2008,07,15,07,04,12.70
2008,07,15,07,05,12.80
2008,07,15,07,06,12.90
2008,07,15,07,07,13.00
2008,07,15,07,08,13.10
2008,07,15,07,09,13.10
2008,07,15,07,10,13.20
2008,07,15,07,11,13.20
2008,07,15,07,12,13.30
2008,07,15,07,13,13.30
2008,07,15,07,14,13.30
2008,07,15,07,15,13.30
2008,07,15,07,16,13.40
2008,07,15,07,17,13.40
2008,07,15,07,18,13.50
2008,07,15,07,19,13.60
2008,07,15,07,20,13.60
2008,07,15,07,21,13.70
2008,07,15,07,22,13.80
2008,07,15,07,23,13.80
2008,07,15,07,24,13.90
2008,07,15,07,25,14.00
2008,07,15,07,26,14.00
2008,07,15,07,27,14.00
2008,07,15,07,28,14.10
2008,07,15,07,29,14.10
2008,07,15,07,30,14.20
2008,07,15,07,31,14.20
2008,07,15,07,32,14.30
2008,07,15,07,33,14.40
2008,07,15,07,34,14.50
2008,07,15,07,35,14.60
2008,07,15,07,36,14.70
2008,07,15,07,37,14.80
2008,07,15,07,38,14.80
2008,07,15,07,39,14.80
2008,07,15,07,40,14.90
2008,07,15,07,41,14.90
2008,07,15,07,42,15.00
2008,07,15,07,43,15.00
2008,07,15,07,44,15.10
2008,07,15,07,45,15.20
2008,07,15,07,46,15.20
2008,07,15,07,47,15.30
2008,07,15,07,48,15.30
2008,07,15,07,49,15.40
2008,07,15,07,50,15.40
2008,07,15,07,51,15.50
2008,07,15,07,52,15.60
2008,07,15,07,53,15.70
2008,07,15,07,54,15.80
2008,07,15,07,55,15.80
2008,07,15,07,56,15.90
2008,07,15,07,57,16.10
2008,07,15,07,58,16.10
2008,07,15,07,59,16.20
2008,07,15,08,00,16.30
2008,07,15,08,01,16.40
2008,07,15,08,02,16.40
2008,07,15,08,03,16.50
2008,07,15,08,04,16.60
2008,07,15,08,05,16.60
2008,07,15,08,06,16.70
2008,07,15,08,07,16.70
2008,07,15,08,08,16.80
2008,07,15,08,09,16.80
2008,07,15,08,10,16.80
2008,07,15,08,11,16.80
2008,07,15,08,12,16.80
2008,07,15,08,13,16.90
2008,07,15,08,14,16.90
2008,07,15,08,15,17.00
2008,07,15,08,16,17.00
2008,07,15,08,17,17.00
2008,07,15,08,18,17.10
2008,07,15,08,19,17.10
2008,07,15,08,20,17.10
2008,07,15,08,21,17.10
2008,07,15,08,22,17.20
2008,07,15,08,23,17.20
2008,07,15,08,24,17.20
2008,07,15,08,25,17.20
2008,07,15,08,26,17.20
2008,07,15,08,27,17.20
2008,07,15,08,28,17.20
2008,07,15,08,29,17.10
2008,07,15,08,30,17.10
2008,07,15,08,31,17.00
2008,07,15,08,32,17.00
2008,07,15,08,33,17.10
2008,07,15,08,34,17.10
2008,07,15,08,35,17.20
2008,07,15,08,36,17.10
2008,07,15,08,37,17.10
2008,07,15,08,38,17.10
2008,07,15,08,39,17.10
2008,07,15,08,40,17.10
2008,07,15,08,41,17.10
2008,07,15,08,42,17.00
2008,07,15,08,43,17.00
2008,07,15,08,44,17.00
2008,07,15,08,45,17.00
2008,07,15,08,46,17.00
2008,07,15,08,47,17.00
2008,07,15,08,48,17.10
2008,07,15,08,49,17.10
2008,07,15,08,50,17.20
2008,07,15,08,51,17.20
2008,07,15,08,52,17.30
2008,07,15,08,53,17.30
2008,07,15,08,54,17.20
2008,07,15,08,55,17.30
2008,07,15,08,56,17.30
2008,07,15,08,57,17.40
2008,07,15,08,58,17.50
2008,07,15,08,59,17.50
2008,07,15,09,00,17.60
2008,07,15,09,01,17.50
2008,07,15,09,02,17.40
2008,07,15,09,03,17.30
2008,07,15,09,04,17.30
2008,07,15,09,05,17.30
2008,07,15,09,06,17.30
2008,07,15,09,07,17.40
2008,07,15,09,08,17.50
2008,07,15,09,09,17.50
2008,07,15,09,10,17.60
2008,07,15,09,11,17.60
2008,07,15,09,12,17.60
2008,07,15,09,13,17.60
2008,07,15,09,14,17.60
2008,07,15,09,15,17.70
2008,07,15,09,16,17.60
2008,07,15,09,17,17.60
2008,07,15,09,18,17.60
2008,07,15,09,19,17.70
2008,07,15,09,20,17.70
2008,07,15,09,21,17.80
2008,07,15,09,22,17.90
2008,07,15,09,23,17.90
2008,07,15,09,24,17.90
2008,07,15,09,25,17.90
2008,07,15,09,26,17.90
2008,07,15,09,27,17.90
2008,07,15,09,28,17.90
2008,07,15,09,29,18.00
2008,07,15,09,30,18.10
2008,07,15,09,31,18.20
2008,07,15,09,32,18.30
2008,07,15,09,33,18.40
2008,07,15,09,34,18.40
2008,07,15,09,35,18.50
2008,07,15,09,36,18.50
2008,07,15,09,37,18.60
2008,07,15,09,38,18.70
2008,07,15,09,39,18.80
2008,07,15,09,40,18.70
2008,07,15,09,41,18.70
2008,07,15,09,42,18.60
2008,07,15,09,43,18.50
2008,07,15,09,44,18.50
2008,07,15,09,45,18.40
2008,07,15,09,46,18.40
2008,07,15,09,47,18.40
2008,07,15,09,48,18.30
2008,07,15,09,49,18.30
2008,07,15,09,50,18.20
2008,07,15,09,51,18.20
2008,07,15,09,52,18.20
2008,07,15,09,53,18.20
2008,07,15,09,54,18.10
2008,07,15,09,55,18.10
2008,07,15,09,56,18.10
2008,07,15,09,57,18.10
2008,07,15,09,58,18.10
2008,07,15,09,59,18.10
2008,07,15,10,00,18.20
2008,07,15,10,01,18.20
2008,07,15,10,02,18.30
2008,07,15,10,03,18.40
2008,07,15,10,04,18.50
2008,07,15,10,05,18.40
2008,07,15,10,06,18.40
2008,07,15,10,07,18.40
2008,07,15,10,08,18.50
2008,07,15,10,09,18.60
2008,07,15,10,10,18.70
2008,07,15,10,11,18.80
2008,07,15,10,12,18.90
2008,07,15,10,13,18.90
2008,07,15,10,14,19.00
2008,07,15,10,15,19.10
2008,07,15,10,16,19.10
2008,07,15,10,17,19.10
2008,07,15,10,18,19.30
2008,07,15,10,19,19.40
2008,07,15,10,20,19.40
2008,07,15,10,21,19.40
2008,07,15,10,22,19.30
2008,07,15,10,23,19.30
2008,07,15,10,24,19.30
2008,07,15,10,25,19.40
2008,07,15,10,26,19.50
2008,07,15,10,27,19.40
2008,07,15,10,28,19.30
2008,07,15,10,29,19.10
2008,07,15,10,30,19.00
2008,07,15,10,31,18.90
2008,07,15,10,32,18.80
2008,07,15,10,33,18.80
2008,07,15,10,34,18.70
2008,07,15,10,35,18.80
2008,07,15,10,36,18.80
2008,07,15,10,37,18.90
2008,07,15,10,38,18.90
2008,07,15,10,39,19.00
2008,07,15,10,40,19.10
2008,07,15,10,41,19.10
2008,07,15,10,42,19.00
2008,07,15,10,43,18.90
2008,07,15,10,44,19.00
2008,07,15,10,45,19.10
2008,07,15,10,46,19.20
2008,07,15,10,47,19.30
2008,07,15,10,48,19.40
2008,07,15,10,49,19.40
2008,07,15,10,50,19.50
2008,07,15,10,51,19.40
2008,07,15,10,52,19.30
2008,07,15,10,53,19.20
2008,07,15,10,54,19.10
2008,07,15,11,04,19.10
2008,07,15,11,05,19.00
2008,07,15,11,06,18.90
2008,07,15,11,07,18.90
2008,07,15,11,08,18.90
2008,07,15,11,09,19.00
2008,07,15,11,10,19.00
2008,07,15,11,11,18.80
2008,07,15,11,12,18.70
2008,07,15,11,13,18.60
2008,07,15,11,14,18.60
2008,07,15,11,15,18.50
2008,07,15,11,16,18.40
2008,07,15,11,17,18.40
2008,07,15,11,18,18.30
2008,07,15,11,19,18.30
2008,07,15,11,20,18.30
2008,07,15,11,21,18.30
2008,07,15,11,22,18.40
2008,07,15,11,23,18.50
2008,07,15,11,24,18.50
2008,07,15,11,25,18.60
2008,07,15,11,26,18.80
2008,07,15,11,27,18.90
2008,07,15,11,28,18.90
2008,07,15,11,29,18.90
2008,07,15,11,30,18.80
2008,07,15,11,31,18.90
2008,07,15,11,32,18.90
2008,07,15,11,33,19.00
2008,07,15,11,34,19.10
2008,07,15,11,35,19.10
2008,07,15,11,36,19.20
2008,07,15,11,37,19.20
2008,07,15,11,38,19.20
2008,07,15,11,39,19.20
2008,07,15,11,40,19.30
2008,07,15,11,41,19.40
2008,07,15,11,42,19.50
2008,07,15,11,43,19.50
2008,07,15,11,44,19.50
2008,07,15,11,45,19.50
2008,07,15,11,46,19.50
2008,07,15,11,47,19.50
2008,07,15,11,48,19.30
2008,07,15,11,49,19.10
2008,07,15,11,50,19.10
2008,07,15,11,51,19.10
2008,07,15,11,52,19.10
2008,07,15,11,53,19.10
2008,07,15,11,54,19.00
2008,07,15,11,55,18.90
2008,07,15,11,56,18.90
2008,07,15,11,57,18.90
2008,07,15,11,58,18.90
2008,07,15,11,59,18.90
2008,07,15,12,00,18.90
2008,07,15,12,01,18.90
2008,07,15,12,02,18.80
2008,07,15,12,03,18.70
2008,07,15,12,04,18.60
2008,07,15,12,05,18.60
2008,07,15,12,06,18.60
2008,07,15,12,07,18.60
2008,07,15,12,08,18.60
2008,07,15,12,09,18.70
2008,07,15,12,10,18.90
2008,07,15,12,11,19.00
2008,07,15,12,12,19.10
2008,07,15,12,13,19.00
2008,07,15,12,14,18.90
2008,07,15,12,15,18.90
2008,07,15,12,16,18.90
2008,07,15,12,17,18.90
2008,07,15,12,18,18.90
2008,07,15,12,19,19.00
2008,07,15,12,20,19.20
2008,07,15,12,21,19.40
2008,07,15,12,22,19.60
2008,07,15,12,23,19.70
2008,07,15,12,24,19.90
2008,07,15,12,25,19.90
2008,07,15,12,26,20.00
2008,07,15,12,27,20.20
2008,07,15,12,28,20.20
2008,07,15,12,29,20.30
2008,07,15,12,30,20.30
2008,07,15,12,31,20.30
2008,07,15,12,32,20.10
2008,07,15,12,33,20.00
2008,07,15,12,34,19.90
2008,07,15,12,35,19.90
2008,07,15,12,36,19.80
2008,07,15,12,37,19.90
2008,07,15,12,38,19.90
2008,07,15,12,39,19.80
2008,07,15,12,40,19.80
2008,07,15,12,41,19.80
2008,07,15,12,42,19.90
2008,07,15,12,43,19.90
2008,07,15,12,44,19.90
2008,07,15,12,45,19.80
2008,07,15,12,46,19.80
2008,07,15,12,47,19.70
2008,07,15,12,48,19.70
2008,07,15,12,49,19.70
2008,07,15,12,50,19.80
2008,07,15,12,51,19.80
2008,07,15,12,52,19.90
2008,07,15,12,53,20.00
2008,07,15,12,54,20.20
2008,07,15,12,55,20.30
2008,07,15,12,56,20.40
2008,07,15,12,57,20.50
2008,07,15,12,58,20.40
2008,07,15,12,59,20.20
2008,07,15,13,00,20.20
2008,07,15,13,01,20.20
2008,07,15,13,02,20.30
2008,07,15,13,03,20.40
2008,07,15,13,04,20.40
2008,07,15,13,05,20.40
2008,07,15,13,06,20.40
2008,07,15,13,07,20.50
2008,07,15,13,08,20.60
2008,07,15,13,09,20.70
2008,07,15,13,10,20.70
2008,07,15,13,11,20.70
2008,07,15,13,12,20.70
2008,07,15,13,13,20.70
2008,07,15,13,14,20.50
2008,07,15,13,15,20.20
2008,07,15,13,16,20.00
2008,07,15,13,17,19.90
2008,07,15,13,18,19.90
2008,07,15,13,19,19.90
2008,07,15,13,20,20.00
2008,07,15,13,21,20.10
2008,07,15,13,22,20.20
2008,07,15,13,23,20.30
2008,07,15,13,24,20.40
2008,07,15,13,25,20.50
2008,07,15,13,26,20.50
2008,07,15,13,27,20.40
2008,07,15,13,28,20.40
2008,07,15,13,29,20.30
2008,07,15,13,30,20.20
2008,07,15,13,31,20.20
2008,07,15,13,32,20.10
2008,07,15,13,33,20.00
2008,07,15,13,34,19.90
2008,07,15,13,35,20.00
2008,07,15,13,36,20.10
2008,07,15,13,37,20.10
2008,07,15,13,38,20.10
2008,07,15,13,39,20.20
2008,07,15,13,40,20.20
2008,07,15,13,41,20.20
2008,07,15,13,42,20.30
2008,07,15,13,43,20.40
2008,07,15,13,44,20.50
2008,07,15,13,45,20.40
2008,07,15,13,46,20.20
2008,07,15,13,47,20.30
2008,07,15,13,48,20.30
2008,07,15,13,49,20.40
2008,07,15,13,50,20.40
2008,07,15,13,51,20.30
2008,07,15,13,52,20.40
2008,07,15,13,53,20.40
2008,07,15,13,54,20.30
2008,07,15,13,55,20.00
2008,07,15,13,56,19.60
2008,07,15,13,57,19.40
2008,07,15,13,58,19.30
2008,07,15,13,59,19.30
2008,07,15,14,00,19.30
2008,07,15,14,01,19.10
2008,07,15,14,02,18.90
2008,07,15,14,03,18.70
2008,07,15,14,04,18.60
2008,07,15,14,05,18.50
2008,07,15,14,06,18.30
2008,07,15,14,07,18.30
2008,07,15,14,08,18.40
2008,07,15,14,09,18.30
2008,07,15,14,10,18.30
2008,07,15,14,11,18.30
2008,07,15,14,12,18.30
2008,07,15,14,13,18.30
2008,07,15,14,14,18.30
2008,07,15,14,15,18.40
2008,07,15,14,16,18.50
2008,07,15,14,17,18.70
2008,07,15,14,18,18.80
2008,07,15,14,19,18.90
2008,07,15,14,20,18.90
2008,07,15,14,21,18.90
2008,07,15,14,22,18.70
2008,07,15,14,23,18.70
2008,07,15,14,24,18.60
2008,07,15,14,25,18.50
2008,07,15,14,26,18.50
2008,07,15,14,27,18.40
2008,07,15,14,28,18.20
2008,07,15,14,29,18.20
2008,07,15,14,30,18.20
2008,07,15,14,31,18.20
2008,07,15,14,32,18.30
2008,07,15,14,33,18.40
2008,07,15,14,34,18.40
2008,07,15,14,35,18.20
2008,07,15,14,36,18.00
2008,07,15,14,37,17.80
2008,07,15,14,38,17.70
2008,07,15,14,39,17.60
2008,07,15,14,40,17.60
2008,07,15,14,41,17.60
2008,07,15,14,42,17.70
2008,07,15,14,43,17.80
2008,07,15,14,44,17.80
2008,07,15,14,45,17.70
2008,07,15,14,46,17.40
2008,07,15,14,47,17.30
2008,07,15,14,48,17.40
2008,07,15,14,49,17.50
2008,07,15,14,50,17.70
2008,07,15,14,51,17.70
2008,07,15,14,52,17.80
2008,07,15,14,53,17.70
2008,07,15,14,54,17.70
2008,07,15,14,55,17.80
2008,07,15,14,56,18.00
2008,07,15,14,57,18.20
2008,07,15,14,58,18.20
2008,07,15,14,59,18.30
2008,07,15,15,00,18.30
2008,07,15,15,01,18.30
2008,07,15,15,02,18.30
2008,07,15,15,03,18.30
2008,07,15,15,04,18.30
2008,07,15,15,05,18.10
2008,07,15,15,06,18.00
2008,07,15,15,07,17.90
2008,07,15,15,08,17.80
2008,07,15,15,09,17.70
2008,07,15,15,10,17.70
2008,07,15,15,11,17.70
2008,07,15,15,12,17.60
2008,07,15,15,13,17.40
2008,07,15,15,14,17.30
2008,07,15,15,15,17.30
2008,07,15,15,16,17.30
2008,07,15,15,17,17.30
2008,07,15,15,18,17.40
2008,07,15,15,19,17.50
2008,07,15,15,20,17.60
2008,07,15,15,21,17.70
2008,07,15,15,22,17.60
2008,07,15,15,23,17.50
2008,07,15,15,24,17.50
2008,07,15,15,25,17.50
2008,07,15,15,26,17.40
2008,07,15,15,27,17.30
2008,07,15,15,28,17.30
2008,07,15,15,29,17.30
2008,07,15,15,30,17.30
2008,07,15,15,31,17.40
2008,07,15,15,32,17.40
2008,07,15,15,33,17.30
2008,07,15,15,34,17.30
2008,07,15,15,35,17.20
2008,07,15,15,36,17.20
2008,07,15,15,37,17.20
2008,07,15,15,38,17.10
2008,07,15,15,39,17.10
2008,07,15,15,40,17.20
2008,07,15,15,41,17.20
2008,07,15,15,42,17.20
2008,07,15,15,43,17.30
2008,07,15,15,44,17.30
2008,07,15,15,45,17.40
2008,07,15,15,46,17.50
2008,07,15,15,47,17.70
2008,07,15,15,48,17.90
2008,07,15,15,49,18.10
2008,07,15,15,50,18.20
2008,07,15,15,51,18.40
2008,07,15,15,52,18.50
2008,07,15,15,53,18.60
2008,07,15,15,54,18.60
2008,07,15,15,55,18.80
2008,07,15,15,56,18.90
2008,07,15,15,57,18.90
2008,07,15,15,58,18.90
2008,07,15,15,59,18.80
2008,07,15,16,00,18.80
2008,07,15,16,01,18.80
2008,07,15,16,02,18.70
2008,07,15,16,03,18.60
2008,07,15,16,04,18.60
2008,07,15,16,05,18.50
2008,07,15,16,06,18.40
2008,07,15,16,07,18.50
2008,07,15,16,08,18.60
2008,07,15,16,09,18.50
2008,07,15,16,10,18.60
2008,07,15,16,11,18.60
2008,07,15,16,12,18.50
2008,07,15,16,13,18.40
2008,07,15,16,14,18.30
2008,07,15,16,15,18.40
2008,07,15,16,16,18.50
2008,07,15,16,17,18.50
2008,07,15,16,18,18.30
2008,07,15,16,19,18.20
2008,07,15,16,20,18.20
2008,07,15,16,21,18.20
2008,07,15,16,22,18.20
2008,07,15,16,23,18.10
2008,07,15,16,24,18.00
2008,07,15,16,25,17.90
2008,07,15,16,26,17.90
2008,07,15,16,27,17.90
2008,07,15,16,28,17.90
2008,07,15,16,29,18.00
2008,07,15,16,30,18.20
2008,07,15,16,31,18.20
2008,07,15,16,32,18.30
2008,07,15,16,33,18.20
2008,07,15,16,34,18.10
2008,07,15,16,35,18.00
2008,07,15,16,36,17.90
2008,07,15,16,37,17.90
2008,07,15,16,38,17.90
2008,07,15,16,39,17.90
2008,07,15,16,40,17.90
2008,07,15,16,41,18.00
2008,07,15,16,42,18.10
2008,07,15,16,43,18.10
2008,07,15,16,44,18.20
2008,07,15,16,45,18.20
2008,07,15,16,46,18.20
2008,07,15,16,47,18.20
2008,07,15,16,48,18.20
2008,07,15,16,49,18.30
2008,07,15,16,50,18.40
2008,07,15,16,51,18.50
2008,07,15,16,52,18.50
2008,07,15,16,53,18.40
2008,07,15,16,54,18.50
2008,07,15,16,55,18.50
2008,07,15,16,56,18.50
2008,07,15,16,57,18.50
2008,07,15,16,58,18.50
2008,07,15,16,59,18.60
2008,07,15,17,00,18.70
2008,07,15,17,01,18.70
2008,07,15,17,02,18.60
2008,07,15,17,03,18.50
2008,07,15,17,04,18.50
2008,07,15,17,05,18.60
2008,07,15,17,06,18.70
2008,07,15,17,07,18.80
2008,07,15,17,08,18.90
2008,07,15,17,09,19.00
2008,07,15,17,10,19.10
2008,07,15,17,11,19.20
2008,07,15,17,12,19.30
2008,07,15,17,13,19.40
2008,07,15,17,14,19.40
2008,07,15,17,15,19.50
2008,07,15,17,16,19.50
2008,07,15,17,17,19.50
2008,07,15,17,18,19.60
2008,07,15,17,19,19.50
2008,07,15,17,20,19.50
2008,07,15,17,21,19.40
2008,07,15,17,22,19.40
2008,07,15,17,23,19.40
2008,07,15,17,24,19.40
2008,07,15,17,25,19.50
2008,07,15,17,26,19.50
2008,07,15,17,27,19.60
2008,07,15,17,28,19.60
2008,07,15,17,29,19.70
2008,07,15,17,30,19.70
2008,07,15,17,31,19.70
2008,07,15,17,32,19.60
2008,07,15,17,33,19.50
2008,07,15,17,34,19.30
2008,07,15,17,35,19.20
2008,07,15,17,36,19.10
2008,07,15,17,37,19.10
2008,07,15,17,38,19.20
2008,07,15,17,39,19.20
2008,07,15,17,40,19.20
2008,07,15,17,41,19.10
2008,07,15,17,42,19.10
2008,07,15,17,43,19.20
2008,07,15,17,44,19.20
2008,07,15,17,45,19.20
2008,07,15,17,46,19.10
2008,07,15,17,47,19.10
2008,07,15,17,48,19.10
2008,07,15,17,49,19.10
2008,07,15,17,50,19.10
2008,07,15,17,51,19.10
2008,07,15,17,52,19.10
2008,07,15,17,53,19.10
2008,07,15,17,54,19.10
2008,07,15,17,55,19.10
2008,07,15,17,56,19.10
2008,07,15,17,57,19.00
2008,07,15,17,58,18.90
2008,07,15,17,59,18.90
2008,07,15,18,00,18.90
2008,07,15,18,01,18.90
2008,07,15,18,02,18.90
2008,07,15,18,03,18.80
2008,07,15,18,04,18.70
2008,07,15,18,05,18.60
2008,07,15,18,06,18.60
2008,07,15,18,07,18.60
2008,07,15,18,08,18.50
2008,07,15,18,09,18.50
2008,07,15,18,10,18.50
2008,07,15,18,11,18.60
2008,07,15,18,12,18.70
2008,07,15,18,13,18.80
2008,07,15,18,14,18.90
2008,07,15,18,15,18.90
2008,07,15,18,16,19.10
2008,07,15,18,17,19.20
2008,07,15,18,18,19.30
2008,07,15,18,19,19.40
2008,07,15,18,20,19.40
2008,07,15,18,21,19.40
2008,07,15,18,22,19.40
2008,07,15,18,23,19.40
2008,07,15,18,24,19.50
2008,07,15,18,25,19.60
2008,07,15,18,26,19.80
2008,07,15,18,27,19.90
2008,07,15,18,28,20.00
2008,07,15,18,29,20.20
2008,07,15,18,30,20.20
2008,07,15,18,31,20.30
2008,07,15,18,32,20.40
2008,07,15,18,33,20.50
2008,07,15,18,34,20.70
2008,07,15,18,35,20.80
2008,07,15,18,36,20.90
2008,07,15,18,37,21.00
2008,07,15,18,38,21.00
2008,07,15,18,39,21.00
2008,07,15,18,40,21.00
2008,07,15,18,41,21.10
2008,07,15,18,42,21.20
2008,07,15,18,43,21.40
2008,07,15,18,44,21.40
2008,07,15,18,45,21.60
2008,07,15,18,46,21.80
2008,07,15,18,47,21.90
2008,07,15,18,48,22.00
2008,07,15,18,49,22.10
2008,07,15,18,50,22.20
2008,07,15,18,51,22.20
2008,07,15,18,52,22.20
2008,07,15,18,53,22.30
2008,07,15,18,54,22.20
2008,07,15,18,55,22.20
2008,07,15,18,56,22.20
2008,07,15,18,57,22.20
2008,07,15,18,58,22.30
2008,07,15,18,59,22.30
2008,07,15,19,00,22.30
2008,07,15,19,01,22.30
2008,07,15,19,02,22.30
2008,07,15,19,03,22.30
2008,07,15,19,04,22.30
2008,07,15,19,05,22.40
2008,07,15,19,06,22.40
2008,07,15,19,07,22.50
2008,07,15,19,08,22.50
2008,07,15,19,09,22.50
2008,07,15,19,10,22.60
2008,07,15,19,11,22.60
2008,07,15,19,12,22.80
2008,07,15,19,13,22.90
2008,07,15,19,14,22.90
2008,07,15,19,15,23.00
2008,07,15,19,16,23.00
2008,07,15,19,17,23.00
2008,07,15,19,18,23.10
2008,07,15,19,19,23.20
2008,07,15,19,20,23.30
2008,07,15,19,21,23.30
2008,07,15,19,22,23.40
2008,07,15,19,23,23.50
2008,07,15,19,24,23.60
2008,07,15,19,25,23.70
2008,07,15,19,26,23.70
2008,07,15,19,27,23.70
2008,07,15,19,28,23.80
2008,07,15,19,29,23.80
2008,07,15,19,30,23.80
2008,07,15,19,31,23.80
2008,07,15,19,32,23.90
2008,07,15,19,33,23.90
2008,07,15,19,34,23.90
2008,07,15,19,35,23.90
2008,07,15,19,36,23.90
2008,07,15,19,37,23.90
2008,07,15,19,38,23.90
2008,07,15,19,39,23.80
2008,07,15,19,40,23.70
2008,07,15,19,41,23.70
2008,07,15,19,42,23.70
2008,07,15,19,43,23.70
2008,07,15,19,44,23.70
2008,07,15,19,45,23.70
2008,07,15,19,46,23.60
2008,07,15,19,47,23.60
2008,07,15,19,48,23.50
2008,07,15,19,49,23.40
2008,07,15,19,50,23.30
2008,07,15,19,51,23.30
2008,07,15,19,52,23.30
2008,07,15,19,53,23.40
2008,07,15,19,54,23.40
2008,07,15,19,55,23.30
2008,07,15,19,56,23.30
2008,07,15,19,57,23.30
2008,07,15,19,58,23.30
2008,07,15,19,59,23.20
2008,07,15,20,00,23.20
2008,07,15,20,01,23.20
2008,07,15,20,02,23.20
2008,07,15,20,03,23.10
2008,07,15,20,04,23.10
2008,07,15,20,05,23.10
2008,07,15,20,06,22.90
2008,07,15,20,07,22.90
2008,07,15,20,08,22.90
2008,07,15,20,09,22.90
2008,07,15,20,10,22.90
2008,07,15,20,11,22.80
2008,07,15,20,12,22.80
2008,07,15,20,13,22.70
2008,07,15,20,14,22.70
2008,07,15,20,15,22.70
2008,07,15,20,16,22.60
2008,07,15,20,17,22.60
2008,07,15,20,18,22.60
2008,07,15,20,19,22.50
2008,07,15,20,20,22.50
2008,07,15,20,21,22.50
2008,07,15,20,22,22.50
2008,07,15,20,23,22.40
2008,07,15,20,24,22.30
2008,07,15,20,25,22.30
2008,07,15,20,26,22.20
2008,07,15,20,27,22.20
2008,07,15,20,28,22.10
2008,07,15,20,29,22.10
2008,07,15,20,30,22.00
2008,07,15,20,31,22.00
2008,07,15,20,32,21.90
2008,07,15,20,33,21.90
2008,07,15,20,34,21.80
2008,07,15,20,35,21.70
2008,07,15,20,36,21.60
2008,07,15,20,37,21.60
2008,07,15,20,38,21.60
2008,07,15,20,39,21.50
2008,07,15,20,40,21.40
2008,07,15,20,41,21.30
2008,07,15,20,42,21.30
2008,07,15,20,43,21.30
2008,07,15,20,44,21.30
2008,07,15,20,45,21.20
2008,07,15,20,46,21.20
2008,07,15,20,47,21.10
2008,07,15,20,48,21.10
2008,07,15,20,49,21.00
2008,07,15,20,50,21.00
2008,07,15,20,51,20.90
2008,07,15,20,52,20.90
2008,07,15,20,53,20.80
2008,07,15,20,54,20.80
2008,07,15,20,55,20.70
2008,07,15,20,56,20.70
2008,07,15,20,57,20.60
2008,07,15,20,58,20.60
2008,07,15,20,59,20.50
2008,07,15,21,00,20.50
2008,07,15,21,01,20.40
2008,07,15,21,02,20.40
2008,07,15,21,03,20.40
2008,07,15,21,04,20.30
2008,07,15,21,05,20.30
2008,07,15,21,06,20.20
2008,07,15,21,07,20.20
2008,07,15,21,08,20.20
2008,07,15,21,09,20.20
2008,07,15,21,10,20.20
2008,07,15,21,11,20.20
2008,07,15,21,12,20.20
2008,07,15,21,13,20.10